Stations météo

réclame
Mon MeteoGroup
Wick Airport (AWS), Grande-Bretagne (3075): Température de l'air & dewpoint: 17.11.2017 11:00:00 - 23.11.2017 11:00:00 (GMT)Wick Airport (AWS), Grande-Bretagne (3075): Vitesse du vent & gusts: 17.11.2017 11:00:00 - 23.11.2017 11:00:00 (GMT)Wick Airport (AWS), Grande-Bretagne (3075): Direction du vent: 17.11.2017 11:00:00 - 23.11.2017 11:00:00 (GMT)Wick Airport (AWS), Grande-Bretagne (3075): reduced air pressure: 17.11.2017 11:00:00 - 23.11.2017 11:00:00 (GMT)Wick Airport (AWS), Grande-Bretagne (3075): visibility: 17.11.2017 11:00:00 - 23.11.2017 11:00:00 (GMT)Wick Airport (AWS), Grande-Bretagne (3075): Quantités de précipitations: 17.11.2017 11:00:00 - 23.11.2017 11:00:00 (GMT)
Date & Time tt [°C] td [°C] ff [km/h] ff [knt] fx [km/h] fx [knt] dd ppp [hPa] vv [km] rr [mm]
23.11.2017 11:00:00 1,8 1,2 16 9 - - W 981,6 30 0,0
23.11.2017 10:00:00 1,6 1,1 16 9 - - W 980,5 45 0,0
23.11.2017 09:00:00 1,4 1,0 16 9 - - W 979,9 35 0,0
23.11.2017 08:00:00 2,2 1,6 21 11 - - NNW 979,3 18 1,2
23.11.2017 07:00:00 2,3 1,0 24 13 50 27 N 979,0 12 1,2
23.11.2017 06:00:00 2,5 1,9 41 22 52 28 N 978,1 6 2,4
23.11.2017 05:00:00 3,1 2,3 34 18 46 25 NNE 977,4 7 2,0
23.11.2017 04:00:00 3,3 2,5 31 17 50 27 NE 977,2 10 2,6
23.11.2017 03:00:00 3,3 2,6 39 21 54 29 NE 977,3 10 2,8
23.11.2017 02:00:00 3,6 2,7 28 15 46 25 NNE 977,7 6 2,8
23.11.2017 01:00:00 4,3 3,3 35 19 52 28 NE 977,8 12 -
23.11.2017 00:00:00 5,5 4,3 28 15 54 29 ENE 977,8 35 0,0
22.11.2017 23:00:00 5,7 5,1 41 22 57 31 NE 977,4 21 0,2
22.11.2017 22:00:00 5,5 5,0 37 20 48 26 NNE 977,9 3,4 0,2
22.11.2017 21:00:00 5,9 4,8 34 18 - - NE 978,3 23 0,8
22.11.2017 20:00:00 3,2 3,1 16 9 - - W 979,2 8 1,6
22.11.2017 19:00:00 2,8 2,2 18 10 - - W 980,7 30 0,0
22.11.2017 18:00:00 2,7 1,9 13 7 - - W 981,2 17 0,0
22.11.2017 17:00:00 2,6 1,8 13 7 - - W 981,5 50 0,0
22.11.2017 16:00:00 2,7 2,1 13 7 - - W 982,3 45 0,0
22.11.2017 15:00:00 3,2 2,4 11 6 - - W 982,7 50 0,0
22.11.2017 14:00:00 3,5 2,4 13 7 - - W 983,3 50 0,0
22.11.2017 13:00:00 3,9 2,4 13 7 - - W 984,1 50 0,0
22.11.2017 12:00:00 3,5 2,6 11 6 - - WSW 984,5 45 0,0
22.11.2017 11:00:00 3,6 2,5 9 5 - - SW 985,0 50 0,0
22.11.2017 10:00:00 4,2 2,8 13 7 - - SW 985,0 50 0,0
22.11.2017 09:00:00 3,9 3,4 21 11 - - W 984,3 50 0,0
22.11.2017 08:00:00 4,0 3,9 21 11 - - W 984,1 50 0,0
22.11.2017 07:00:00 5,2 5,2 18 10 - - W 984,2 50 0,0
22.11.2017 06:00:00 3,5 3,5 13 7 - - W 984,3 45 0,0
22.11.2017 05:00:00 5,7 5,7 18 10 - - W 984,6 4,8 0,0
22.11.2017 04:00:00 5,9 5,9 11 6 - - WSW 984,8 2,2 0,2
22.11.2017 03:00:00 5,8 5,8 11 6 - - WSW 985,2 7 0,0
22.11.2017 02:00:00 5,5 5,5 13 7 - - WSW 985,3 3,5 0,2
22.11.2017 01:00:00 5,2 5,2 15 8 - - W 985,0 8 0,4
22.11.2017 00:00:00 5,6 5,6 13 7 - - W 985,3 30 0,0
21.11.2017 23:00:00 6,5 6,5 11 6 - - W 985,5 12 -
21.11.2017 22:00:00 6,5 6,4 11 6 - - WNW 986,0 30 0,4
21.11.2017 21:00:00 6,9 6,7 11 6 - - NW 986,7 11 0,8
21.11.2017 20:00:00 7,8 7,2 5 3 - - S 987,8 7 2,0
21.11.2017 19:00:00 8,5 8,4 11 6 - - SSE 988,9 9 1,2
21.11.2017 18:00:00 8,2 8,0 35 19 55 30 E 990,2 7 1,6
21.11.2017 17:00:00 8,1 7,8 44 24 68 37 E 992,3 6 2,8
21.11.2017 16:00:00 7,3 6,9 52 28 68 37 E 994,4 5 3,2
21.11.2017 15:00:00 6,9 6,3 46 25 65 35 E 996,2 4,3 -
21.11.2017 14:00:00 6,7 5,4 48 26 63 34 E 998,0 6 1,0
21.11.2017 13:00:00 6,4 5,4 44 24 59 32 E 999,8 7 1,4
21.11.2017 12:00:00 6,3 5,5 37 20 50 27 E 1001,6 5 2,8
21.11.2017 11:00:00 6,0 4,5 37 20 50 27 E 1003,3 7 2,0
21.11.2017 10:00:00 5,9 4,7 35 19 50 27 E 1004,2 7 -
21.11.2017 09:00:00 5,8 4,5 34 18 - - E 1005,3 7 1,0
21.11.2017 08:00:00 5,6 4,5 34 18 - - E 1006,1 10 0,4
21.11.2017 07:00:00 5,1 3,4 34 18 - - E 1006,6 11 0,8
21.11.2017 06:00:00 5,2 3,7 29 16 - - E 1007,1 16 0,8
21.11.2017 05:00:00 5,1 3,7 28 15 - - E 1007,7 10 0,8
21.11.2017 04:00:00 5,5 3,4 24 13 - - E 1008,2 13 0,4
21.11.2017 03:00:00 5,5 3,6 24 13 - - E 1008,4 12 0,6
21.11.2017 02:00:00 5,1 3,6 22 12 - - E 1009,0 25 0,6
21.11.2017 01:00:00 5,0 3,2 21 11 - - E 1009,6 45 0,4
21.11.2017 00:00:00 5,2 3,4 24 13 - - E 1009,9 25 0,6
20.11.2017 23:00:00 5,0 3,2 22 12 - - E 1010,1 30 0,6
20.11.2017 22:00:00 4,9 3,3 22 12 - - ENE 1010,4 18 1,0
20.11.2017 21:00:00 5,3 3,0 22 12 - - ENE 1010,4 18 0,4
20.11.2017 20:00:00 5,3 3,2 22 12 - - E 1010,3 18 0,4
20.11.2017 19:00:00 5,6 3,0 24 13 - - ENE 1010,5 12 0,0
20.11.2017 18:00:00 6,2 1,5 24 13 - - ENE 1010,0 45 0,0
20.11.2017 17:00:00 6,3 1,9 24 13 - - ENE 1009,3 50 0,0
20.11.2017 16:00:00 6,3 2,3 26 14 - - E 1009,5 50 0,0
20.11.2017 15:00:00 6,7 2,9 26 14 - - E 1009,5 45 0,0
20.11.2017 14:00:00 5,9 2,8 29 16 - - E 1009,4 35 0,0
20.11.2017 13:00:00 6,2 2,4 28 15 - - E 1009,4 13 0,0
20.11.2017 12:00:00 6,3 3,3 28 15 - - E 1009,2 40 0,0
20.11.2017 11:00:00 5,7 3,0 34 18 - - E 1009,3 35 0,0
20.11.2017 10:00:00 5,2 3,4 35 19 46 25 E 1009,3 35 0,2
20.11.2017 09:00:00 4,9 3,5 35 19 - - E 1009,6 9 0,6
20.11.2017 08:00:00 4,9 3,5 31 17 - - E 1009,6 10 0,8
20.11.2017 07:00:00 4,8 3,4 22 12 - - ESE 1009,5 35 0,2
20.11.2017 06:00:00 4,7 3,1 21 11 - - ESE 1010,0 40 -
20.11.2017 05:00:00 4,8 3,3 24 13 - - ESE 1010,6 16 1,2
20.11.2017 04:00:00 4,8 2,2 21 11 - - ESE 1011,3 26 0,4
20.11.2017 03:00:00 4,8 3,1 21 11 - - E 1012,1 8 0,4
20.11.2017 02:00:00 5,4 2,1 15 8 - - SE 1013,0 29 0,2
20.11.2017 01:00:00 5,8 0,7 13 7 - - ESE 1013,8 50 0,0
20.11.2017 00:00:00 3,3 1,0 4 2 - - SE 1014,6 40 0,0
19.11.2017 23:00:00 5,1 1,1 5 3 - - S 1015,3 30 0,0
19.11.2017 22:00:00 4,7 1,1 8 4 - - SSW 1016,1 45 0,0
19.11.2017 21:00:00 3,8 1,5 4 2 - - WSW 1016,9 50 0,0
19.11.2017 20:00:00 2,9 2,3 8 4 - - W 1017,4 30 0,0
19.11.2017 19:00:00 3,3 2,5 11 6 - - W 1017,9 50 0,2
19.11.2017 18:00:00 2,5 1,7 8 4 - - W 1018,3 45 0,0
19.11.2017 17:00:00 2,7 1,7 9 5 - - WSW 1018,5 50 0,0
19.11.2017 16:00:00 2,9 1,9 13 7 - - W 1018,7 45 0,0
19.11.2017 15:00:00 3,6 2,2 13 7 - - WSW 1018,7 40 0,0
19.11.2017 14:00:00 4,5 2,9 16 9 - - W 1019,1 45 0,0
19.11.2017 13:00:00 6,1 2,9 15 8 - - W 1019,4 21 0,0
19.11.2017 12:00:00 5,6 2,2 11 6 - - W 1019,5 30 0,0
19.11.2017 11:00:00 4,9 1,3 11 6 - - NW 1019,5 40 0,0
19.11.2017 10:00:00 2,4 -0,1 15 8 - - W 1019,6 30 0,0
19.11.2017 09:00:00 2,4 -0,1 18 10 - - WNW 1019,5 35 0,0
19.11.2017 08:00:00 2,8 -0,6 21 11 - - WNW 1019,2 30 0,0
19.11.2017 07:00:00 2,2 -0,8 16 9 - - WNW 1019,0 40 0,0
19.11.2017 06:00:00 3,4 0,2 24 13 46 25 WNW 1018,9 29 0,2
19.11.2017 05:00:00 4,0 -0,1 22 12 - - NW 1018,8 30 0,0
19.11.2017 04:00:00 4,3 0,2 18 10 - - WNW 1018,4 29 0,0
19.11.2017 03:00:00 3,9 -0,8 28 15 - - NW 1017,9 30 0,0
19.11.2017 02:00:00 4,3 -1,0 31 17 - - NW 1017,6 29 0,0
19.11.2017 01:00:00 5,1 1,1 29 16 46 25 NW 1017,2 19 0,0
19.11.2017 00:00:00 4,8 -0,3 35 19 46 25 NW 1017,0 35 0,0
18.11.2017 23:00:00 4,5 -0,3 31 17 50 27 NW 1016,8 28 0,0
18.11.2017 22:00:00 5,2 1,2 28 15 46 25 NW 1016,4 26 0,0
18.11.2017 21:00:00 5,4 2,0 29 16 46 25 NW 1016,0 20 0,0
18.11.2017 20:00:00 5,2 1,6 31 17 54 29 WNW 1015,3 19 0,0
18.11.2017 19:00:00 4,8 2,8 42 23 68 37 NW 1015,3 10 0,0
18.11.2017 18:00:00 5,0 1,4 29 16 48 26 WNW 1014,5 22 0,0
18.11.2017 17:00:00 5,1 1,1 39 21 52 28 NW 1014,1 20 0,0
18.11.2017 16:00:00 5,1 3,0 31 17 52 28 WNW 1013,3 18 0,2
18.11.2017 15:00:00 5,6 3,8 39 21 65 35 WNW 1013,1 20 0,4
18.11.2017 14:00:00 5,3 4,0 37 20 65 35 WNW 1012,6 26 0,8
18.11.2017 13:00:00 5,4 3,4 42 23 68 37 W 1012,2 27 0,0
18.11.2017 12:00:00 5,4 2,6 48 26 70 38 W 1011,8 28 0,0
18.11.2017 11:00:00 4,7 2,5 50 27 72 39 WNW 1011,8 29 0,0
18.11.2017 10:00:00 5,6 0,6 46 25 65 35 WNW 1011,3 19 0,0
18.11.2017 09:00:00 4,6 -0,7 44 24 67 36 WNW 1011,2 30 0,0
18.11.2017 08:00:00 4,6 -1,3 44 24 65 35 WNW 1010,8 27 0,0
18.11.2017 07:00:00 4,5 -0,7 44 24 74 40 WNW 1010,7 20 0,0
18.11.2017 06:00:00 4,3 -1,7 46 25 78 42 WNW 1010,4 30 0,0
18.11.2017 05:00:00 4,2 -1,6 44 24 70 38 W 1010,2 35 0,0
18.11.2017 04:00:00 4,1 -0,5 37 20 63 34 W 1010,1 23 0,2
18.11.2017 03:00:00 3,8 -0,5 34 18 74 40 W 1009,9 35 0,0
18.11.2017 02:00:00 2,6 1,0 24 13 65 35 W 1009,9 30 0,0
18.11.2017 01:00:00 3,4 1,8 34 18 61 33 W 1009,9 9 0,2
18.11.2017 00:00:00 3,0 2,1 26 14 54 29 W 1009,7 25 0,6
17.11.2017 23:00:00 2,6 1,4 37 20 54 29 W 1009,7 3,1 1,2
17.11.2017 22:00:00 3,0 2,5 22 12 78 42 W 1010,1 3,5 1,2
17.11.2017 21:00:00 3,3 2,5 37 20 55 30 W 1010,2 6 1,6
17.11.2017 20:00:00 4,2 3,2 41 22 54 29 W 1010,2 10 1,0
17.11.2017 19:00:00 4,8 3,5 31 17 50 27 WSW 1010,5 22 1,0
17.11.2017 18:00:00 4,8 3,8 35 19 52 28 WSW 1011,4 7 0,4
17.11.2017 17:00:00 5,0 3,6 44 24 68 37 W 1011,7 45 0,6
17.11.2017 16:00:00 5,1 3,9 41 22 63 34 W 1011,9 15 0,8
17.11.2017 15:00:00 6,2 4,0 39 21 57 31 WSW 1012,3 8 0,2
17.11.2017 14:00:00 7,0 3,7 41 22 55 30 WSW 1012,6 40 0,0
17.11.2017 13:00:00 7,2 4,0 34 18 55 30 WSW 1013,6 35 0,0
17.11.2017 12:00:00 7,2 4,6 28 15 - - WSW 1014,0 30 0,0
17.11.2017 11:00:00 6,8 4,0 39 21 52 28 W 1014,3 40 0,0

tt = Température de l'air
td = dewpoint
ff = Vitesse du vent
fx = gusts
dd = Direction du vent
ppp = reduced air pressure
vv = visibility
rr = Quantités de précipitations

stations d'obs. à proximité